Bilbao, Spain

3:15 PM CEST en Julio 21, 2018 (GMT +0200)
Bilbao

Tiempo Historia de LEBB - Abril, 2018

Change the Weather History Date:

Lunes, Abril 16, 2018

  Actual Average Record
Temperature  
Temperatura media 57 ° F -  
Temperatura máxima 64 ° F 66 ° F 78 ° F (2003)
Temperatura mínima 50 ° F 48 ° F 33 ° F (1999)
Degree Days  
Grados día de calefacción 8    
Growing Degree Days 7 (Base 50)    
Moisture  
Punto de rocío 49 ° F    
Average Humidity 77    
Maximum Humidity 100    
Minimum Humidity 44    
Precipitación  
Precipitación 0.20 pul - - ()
Presión al nivel del mar  
Presión al nivel del mar 30.07 pul    
Viento  
Velocidad del viento 3 mph ()    
Velocidad máxima del viento 10 mph    
Max Gust Speed 21 mph    
Visibilidad 7.1 Millas    
Eventos Lluvia    
Averages and records for this station are not official NWS values.
T = Trace of Precipitation, MM = Missing Value Source: Averaged Metar Reports

Daily Weather History Graph

Daily Weather History Graph

Search for Another Location

Airport or City:

Astronomía

Apr. 16, 2018 Salida Puesta
Hora real 7:28 AM CEST 8:55 PM CEST
Crepúsculo civil 6:58 AM CEST 9:25 PM CEST
Crepúsculo náutico 6:22 AM CEST 10:01 PM CEST
Crepúsculo astronómico 5:44 AM CEST 10:39 PM CEST
Luna 8:03 AM CEST (4/16) 9:27 PM CEST (4/16)
Horas de luz 14h 27m
Horas de luz
13h 27m
Luna nueva, 0% of the Moon is Illuminated
Abr 16
Luna nueva
Abr 22
Cuarto creciente
Abr 30
Luna llena
May 8
Cuarto menguante
May 15
Nueva

Hourly Weather History & Observations

Hora (CEST) Temp. Punto de rocío Humedad Presión Visibilidad Wind Dir Velocidad del viento Velocidad de ráfagas Precip Eventos Condiciones
12:00 AM 54 ° F 48 ° F 74% 30.01 pul - Sin viento Sin viento - -  
12:00 AM 53.6 ° F 50.0 ° F 88% 30.01 pul 6.2 mi Sin viento Sin viento - N/A   Muy nublado
12:30 AM 53.6 ° F 50.0 ° F 88% 29.98 pul 6.2 mi Sin viento Sin viento - N/A   Muy nublado
1:00 AM 53.6 ° F 50.0 ° F 88% 30.01 pul 6.2 mi ONO 3.5 mph - N/A   Muy nublado
1:30 AM 53.6 ° F 50.0 ° F 88% 30.01 pul 6.2 mi NO 2.3 mph - N/A Lluvia Lluvia débil
2:00 AM 52 ° F 49 ° F 87% 30.03 pul - Oeste 3.5 mph - -   Precipitación desconocida
2:00 AM 53.6 ° F 50.0 ° F 88% 30.01 pul 5.6 mi Oeste 3.5 mph - N/A Lluvia Lluvia débil
2:30 AM 53.6 ° F 51.8 ° F 94% 30.01 pul 4.3 mi ONO 5.8 mph - N/A Lluvia Lluvia débil
3:00 AM 51.8 ° F 50.0 ° F 94% 30.04 pul 6.2 mi NO 8.1 mph - N/A Lluvia Lluvia
3:30 AM 51.8 ° F 50.0 ° F 94% 30.04 pul 6.2 mi NO 6.9 mph - N/A Lluvia Lluvia débil
4:00 AM 51 ° F 49 ° F 89% 30.04 pul - NO 5.8 mph - -   Precipitación desconocida
4:00 AM 51.8 ° F 50.0 ° F 94% 30.04 pul 6.2 mi NNO 5.8 mph - N/A Lluvia Lluvia
4:30 AM 51.8 ° F 50.0 ° F 94% 30.04 pul 6.2 mi NO 4.6 mph - N/A Lluvia Lluvia débil
5:00 AM 50 ° F 49 ° F 95% 30.04 pul 6 mi NO 3.5 mph - - Lluvia Lluvia débil
5:00 AM 51.8 ° F 50.0 ° F 94% 30.04 pul 6.2 mi NNO 3.5 mph - N/A Lluvia Lluvia débil
5:30 AM 51.8 ° F 50.0 ° F 94% 30.04 pul 6.2 mi NO 2.3 mph - N/A Lluvia Lluvia débil
6:00 AM 50 ° F 49 ° F 93% 30.05 pul - NO 2.3 mph - -   Precipitación desconocida
6:00 AM 50.0 ° F 50.0 ° F 100% 30.04 pul 6.2 mi Variable 2.3 mph - N/A Lluvia Lluvia débil
6:30 AM 51.8 ° F 50.0 ° F 94% 30.04 pul 6.2 mi Variable 1.2 mph - N/A Lluvia Lluvia débil
7:00 AM 50 ° F 49 ° F 95% 30.06 pul - NE 3.5 mph - -   Precipitación desconocida
7:00 AM 50.0 ° F 50.0 ° F 100% 30.04 pul 6.2 mi NE 3.5 mph - N/A Lluvia Lluvia débil
7:30 AM 50.0 ° F 50.0 ° F 100% 30.04 pul 6.2 mi Variable 2.3 mph - N/A   Muy nublado
8:00 AM 50 ° F 49 ° F 94% 30.08 pul 9 mi ONO 2.3 mph - - Lluvia Lluvia débil
8:00 AM 51.8 ° F 50.0 ° F 94% 30.06 pul 6.2 mi ONO 1.2 mph - N/A   Nubes dispersas
8:30 AM 51.8 ° F 50.0 ° F 94% 30.06 pul 6.2 mi NO 1.2 mph - N/A   Muy nublado
9:00 AM 51 ° F 49 ° F 90% 30.11 pul - Oeste 2.3 mph - -  
9:00 AM 51.8 ° F 50.0 ° F 94% 30.09 pul 6.2 mi Variable 1.2 mph - N/A   Muy nublado
9:30 AM 51.8 ° F 50.0 ° F 94% 30.09 pul 6.2 mi Sin viento Sin viento - N/A   Nubes dispersas
10:00 AM 53 ° F 49 ° F 82% 30.12 pul - Sin viento Sin viento - -  
10:30 AM 53.6 ° F 50.0 ° F 88% 30.09 pul 6.2 mi Variable 2.3 mph - N/A   Muy nublado
11:00 AM 55 ° F 49 ° F 74% 30.13 pul 12 mi NNO 2.3 mph - -   Parcialmente nublado
11:00 AM 55.4 ° F 50.0 ° F 82% 30.12 pul 6.2 mi Variable 2.3 mph - N/A   Nubes dispersas
11:30 AM 55.4 ° F 48.2 ° F 77% 30.12 pul 6.2 mi NO 3.5 mph - N/A   Nubes dispersas
12:00 PM 57 ° F 46 ° F 57% 30.13 pul - NNO 4.6 mph - -  
12:00 PM 57.2 ° F 46.4 ° F 67% 30.12 pul 6.2 mi NNO 3.5 mph - N/A   Nubes dispersas
12:30 PM 59.0 ° F 48.2 ° F 67% 30.12 pul 6.2 mi Variable 1.2 mph - N/A   Nubes dispersas
1:00 PM 59.0 ° F 46.4 ° F 63% 30.09 pul 6.2 mi Variable 1.2 mph - N/A   Nubes dispersas
1:30 PM 60.8 ° F 48.2 ° F 63% 30.09 pul 6.2 mi Variable 2.3 mph - N/A   Nubes dispersas
2:00 PM 62 ° F 46 ° F 44% 30.11 pul 19 mi ESE 3.5 mph - -   Muy nublado
2:00 PM 62.6 ° F 46.4 ° F 55% 30.09 pul 6.2 mi Variable 3.5 mph - N/A   Nubes dispersas
2:30 PM 60.8 ° F 46.4 ° F 59% 30.09 pul 6.2 mi NNE 4.6 mph - N/A   Muy nublado
3:00 PM 60 ° F 48 ° F 54% 30.12 pul - Norte 10.4 mph - -  
3:00 PM 60.8 ° F 50.0 ° F 68% 30.09 pul 6.2 mi Norte 9.2 mph - N/A   Muy nublado
3:30 PM 60.8 ° F 48.2 ° F 63% 30.09 pul 6.2 mi NNO 8.1 mph - N/A   Muy nublado
4:00 PM 61 ° F 49 ° F 54% 30.11 pul - NNE 4.6 mph - -  
4:00 PM 62.6 ° F 48.2 ° F 59% 30.09 pul 6.2 mi Variable 3.5 mph - N/A   Muy nublado
4:30 PM 62.6 ° F 48.2 ° F 59% 30.09 pul 6.2 mi Variable 4.6 mph - N/A   Muy nublado
5:00 PM 63 ° F 47 ° F 45% 30.10 pul 16 mi ESE 8.1 mph - -   Parcialmente nublado
5:00 PM 62.6 ° F 50.0 ° F 63% 30.09 pul 6.2 mi ESE 8.1 mph - N/A   Nubes dispersas
5:30 PM 64.4 ° F 50.0 ° F 59% 30.09 pul 6.2 mi ESE 6.9 mph - N/A   Nubes dispersas
6:00 PM 64 ° F 51 ° F 52% 30.09 pul - ESE 8.1 mph - -  
6:00 PM 64.4 ° F 50.0 ° F 59% 30.06 pul 6.2 mi ESE 5.8 mph - N/A   Nubes dispersas
6:30 PM 64.4 ° F 51.8 ° F 64% 30.09 pul 6.2 mi Este 9.2 mph - N/A   Nubes dispersas
7:00 PM 63 ° F 50 ° F 54% 30.09 pul - Este 9.2 mph - -  
7:00 PM 62.6 ° F 51.8 ° F 68% 30.06 pul 6.2 mi Este 9.2 mph 20.7 mph N/A   Parcialmente nublado
7:30 PM 62.6 ° F 51.8 ° F 68% 30.06 pul 6.2 mi Este 9.2 mph - N/A   Parcialmente nublado
8:00 PM 61 ° F 49 ° F 56% 30.08 pul 16 mi Este 9.2 mph - -   Despejado
8:30 PM 60.8 ° F 50.0 ° F 68% 30.06 pul - Este 8.1 mph - N/A   Despejado
9:00 PM 58 ° F 49 ° F 65% 30.09 pul - Este 6.9 mph - -  
9:00 PM 59.0 ° F 50.0 ° F 72% 30.06 pul - Este 6.9 mph - N/A   Despejado
9:30 PM 57.2 ° F 50.0 ° F 77% 30.09 pul - ESE 5.8 mph - N/A   Despejado
10:00 PM 57.2 ° F 50.0 ° F 77% 30.09 pul - Este 5.8 mph - N/A   Despejado
10:30 PM 57.2 ° F 50.0 ° F 77% 30.09 pul - ESE 6.9 mph - N/A   Despejado
11:00 PM 55.4 ° F 50.0 ° F 82% 30.09 pul - SE 5.8 mph - N/A   Despejado
11:30 PM 55.4 ° F 50.0 ° F 82% 30.09 pul - SE 5.8 mph - N/A   Despejado